Madison, MN

11:58 AM CST on December 17, 2017 (GMT -0600)
Madison-Lac Qui Parle County

Weather History for KDXX - December, 2012

Change the Weather History Date:

Monday, December 3, 2012

  Actual Average (KAQP) Record (KAQP)
Temperature  
Mean Temperature 42 °F -  
Max Temperature 53 °F 30 °F 53 °F (1998)
Min Temperature 30 °F 15 °F -9 °F (2007)
Degree Days  
Heating Degree Days 24    
Moisture  
Dew Point 32 °F    
Average Humidity 60    
Maximum Humidity 87    
Minimum Humidity 33    
Precipitation  
Precipitation 0.00 in - - ()
Sea Level Pressure  
Sea Level Pressure 29.68 in    
Wind  
Wind Speed 16 mph (WSW)    
Max Wind Speed 29 mph    
Max Gust Speed 39 mph    
Visibility 10 miles    
Events      
Averages and records for this station are not official NWS values.
T = Trace of Precipitation, MM = Missing Value Source: NWS Daily Summary

Daily Weather History Graph

Daily Weather History Graph

Search for Another Location

Airport or City:

Trip Planner

Search our weather history database for the weather conditions in past years. The results will help you decide how hot, cold, wet, or windy it might be!

Date:

Astronomy

Dec. 03, 2012 Rise Set
Actual Time 7:45 AM CST 4:43 PM CST
Civil Twilight 7:12 AM CST 5:17 PM CST
Nautical Twilight 6:35 AM CST 5:53 PM CST
Astronomical Twilight 5:59 AM CST 6:29 PM CST
Moon 9:39 PM CST (12/3) 11:02 AM CST (12/3)
Length of Visible Light 10h 04m
Length of Day
8h 58m
Waning Gibbous, 78% of the Moon is Illuminated
Dec 3
Waning Gibbous
Dec 6
Last Quarter
Dec 13
New
Dec 19
First Quarter
Dec 28
Full

Hourly Weather History & Observations

Time (CST) Temp. Windchill Dew Point Humidity Pressure Visibility Wind Dir Wind Speed Gust Speed Precip Events Conditions
12:14 AM 51.8 °F - 37.4 °F 58% 29.57 in 10.0 mi South 19.6 mph - N/A   Clear
12:34 AM 51.8 °F - 37.4 °F 58% 29.57 in 10.0 mi South 20.7 mph 26.5 mph N/A   Clear
12:54 AM 51.8 °F - 37.4 °F 58% 29.56 in 10.0 mi South 23.0 mph - N/A   Clear
1:14 AM 51.8 °F - 37.4 °F 58% 29.55 in 10.0 mi South 20.7 mph 26.5 mph N/A   Clear
1:34 AM 50.0 °F - 37.4 °F 62% 29.54 in 10.0 mi South 17.3 mph - N/A   Clear
1:54 AM 50.0 °F - 37.4 °F 62% 29.54 in 10.0 mi South 13.8 mph - N/A   Clear
2:14 AM 48.2 °F - 37.4 °F 66% 29.55 in 10.0 mi South 12.7 mph - N/A   Clear
2:34 AM 48.2 °F - 37.4 °F 66% 29.54 in 10.0 mi SSE 13.8 mph - N/A   Clear
2:54 AM 46.4 °F 40.7 °F 37.4 °F 71% 29.53 in 10.0 mi SSE 12.7 mph - N/A   Clear
3:14 AM 46.4 °F 40.1 °F 39.2 °F 76% 29.52 in 10.0 mi SSE 15.0 mph - N/A   Clear
3:34 AM 46.4 °F 40.7 °F 39.2 °F 76% 29.52 in 10.0 mi South 12.7 mph - N/A   Clear
3:54 AM 46.4 °F 40.4 °F 39.2 °F 76% 29.51 in 10.0 mi SSE 13.8 mph - N/A   Clear
4:14 AM 46.4 °F 39.5 °F 39.2 °F 76% 29.49 in 10.0 mi SSE 17.3 mph - N/A   Clear
4:34 AM 46.4 °F 39.8 °F 39.2 °F 76% 29.48 in 10.0 mi South 16.1 mph - N/A   Clear
4:54 AM 46.4 °F 39.5 °F 39.2 °F 76% 29.45 in 10.0 mi SSE 17.3 mph 21.9 mph N/A   Clear
5:14 AM 46.4 °F 38.7 °F 39.2 °F 76% 29.44 in 7.0 mi SSE 20.7 mph 25.3 mph N/A   Clear
5:34 AM 46.4 °F 39.8 °F 41.0 °F 81% 29.45 in 7.0 mi South 16.1 mph - N/A   Clear
5:54 AM 44.6 °F 36.6 °F 41.0 °F 87% 29.44 in 7.0 mi SSE 19.6 mph - N/A   Clear
6:14 AM 46.4 °F 40.7 °F 41.0 °F 81% 29.47 in 7.0 mi South 12.7 mph - N/A   Clear
6:34 AM 44.6 °F 39.7 °F 39.2 °F 81% 29.48 in 5.0 mi South 9.2 mph - N/A   Clear
6:54 AM 44.6 °F 38.8 °F 39.2 °F 81% 29.48 in 5.0 mi South 11.5 mph - N/A   Clear
7:14 AM 44.6 °F 38.8 °F 41.0 °F 87% 29.49 in 7.0 mi SSW 11.5 mph - N/A   Clear
7:34 AM 46.4 °F 39.8 °F 41.0 °F 81% 29.49 in 7.0 mi SSW 16.1 mph - N/A   Clear
7:54 AM 46.4 °F 41.5 °F 41.0 °F 81% 29.51 in 7.0 mi SSW 10.4 mph 18.4 mph N/A   Clear
8:14 AM 46.4 °F 41.1 °F 41.0 °F 81% 29.52 in 7.0 mi SW 11.5 mph - N/A   Clear
8:34 AM 46.4 °F 40.7 °F 39.2 °F 76% 29.52 in 7.0 mi SW 12.7 mph - N/A   Clear
9:14 AM 46.4 °F 40.7 °F 37.4 °F 71% 29.54 in 10.0 mi West 12.7 mph - N/A   Clear
9:34 AM 48.2 °F - 35.6 °F 62% 29.55 in 10.0 mi NW 16.1 mph 23.0 mph N/A   Clear
9:53 AM 50.0 °F - 37.4 °F 62% 29.57 in 10.0 mi NW 16.1 mph 21.9 mph N/A   Clear
10:14 AM 51.8 °F - 37.4 °F 58% 29.59 in 10.0 mi NW 20.7 mph 28.8 mph N/A   Clear
10:34 AM 53.6 °F - 39.2 °F 58% 29.61 in 10.0 mi WNW 28.8 mph 39.1 mph N/A   Clear
10:54 AM 51.8 °F - 39.2 °F 62% 29.63 in 10.0 mi NW 26.5 mph 36.8 mph N/A   Scattered Clouds
11:14 AM 51.8 °F - 37.4 °F 58% 29.64 in 10.0 mi NW 24.2 mph 31.1 mph N/A   Mostly Cloudy
11:33 AM 50.0 °F - 37.4 °F 62% 29.65 in 10.0 mi NW 20.7 mph 28.8 mph N/A   Mostly Cloudy
11:54 AM 48.2 °F - 39.2 °F 71% 29.66 in 10.0 mi NW 18.4 mph 25.3 mph N/A   Drizzle
12:14 PM 48.2 °F - 39.2 °F 71% 29.67 in 10.0 mi NW 18.4 mph 27.6 mph N/A   Scattered Clouds
12:34 PM 50.0 °F - 39.2 °F 66% 29.67 in 10.0 mi NW 17.3 mph 24.2 mph N/A   Clear
12:54 PM 51.8 °F - 35.6 °F 54% 29.67 in 10.0 mi NW 24.2 mph 29.9 mph N/A   Clear
1:14 PM 51.8 °F - 33.8 °F 50% 29.68 in 10.0 mi WNW 25.3 mph 32.2 mph N/A   Clear
1:34 PM 53.6 °F - 32.0 °F 44% 29.69 in 10.0 mi NW 20.7 mph 31.1 mph N/A   Clear
1:54 PM 53.6 °F - 30.2 °F 41% 29.70 in 10.0 mi WNW 21.9 mph 31.1 mph N/A   Clear
2:14 PM 53.6 °F - 28.4 °F 38% 29.70 in 10.0 mi NW 21.9 mph 29.9 mph N/A   Clear
2:34 PM 53.6 °F - 26.6 °F 35% 29.71 in 10.0 mi WNW 23.0 mph - N/A   Clear
2:54 PM 53.6 °F - 26.6 °F 35% 29.73 in 10.0 mi WNW 23.0 mph 31.1 mph N/A   Clear
3:14 PM 53.6 °F - 26.6 °F 35% 29.74 in 10.0 mi WNW 18.4 mph 28.8 mph N/A   Clear
3:34 PM 53.6 °F - 26.6 °F 35% 29.75 in 10.0 mi WNW 17.3 mph 26.5 mph N/A   Clear
3:54 PM 53.6 °F - 24.8 °F 33% 29.76 in 10.0 mi WNW 18.4 mph 25.3 mph N/A   Clear
4:14 PM 51.8 °F - 24.8 °F 35% 29.78 in 10.0 mi WNW 16.1 mph 26.5 mph N/A   Clear
4:34 PM 51.8 °F - 24.8 °F 35% 29.79 in 10.0 mi WNW 12.7 mph 19.6 mph N/A   Clear
4:54 PM 46.4 °F 42.4 °F 24.8 °F 43% 29.80 in 10.0 mi West 8.1 mph - N/A   Clear
5:14 PM 44.6 °F 40.7 °F 24.8 °F 46% 29.82 in 10.0 mi WSW 6.9 mph - N/A   Clear
5:34 PM 46.4 °F 42.9 °F 24.8 °F 43% 29.83 in 10.0 mi West 6.9 mph - N/A   Clear
5:54 PM 41.0 °F 36.4 °F 24.8 °F 53% 29.85 in 10.0 mi West 6.9 mph - N/A   Clear
6:14 PM 41.0 °F 34.3 °F 24.8 °F 53% 29.86 in 10.0 mi West 11.5 mph - N/A   Clear
6:34 PM 42.8 °F 37.0 °F 24.8 °F 49% 29.87 in 10.0 mi West 10.4 mph - N/A   Clear
6:54 PM 42.8 °F 38.0 °F 24.8 °F 49% 29.88 in 10.0 mi WSW 8.1 mph - N/A   Clear
7:13 PM 39.2 °F 34.2 °F 23.0 °F 52% 29.89 in 10.0 mi WSW 6.9 mph - N/A   Clear
7:34 PM 37.4 °F 32.8 °F 23.0 °F 56% 29.90 in 10.0 mi SW 5.8 mph - N/A   Clear
7:53 PM 41.0 °F 35.2 °F 24.8 °F 53% 29.90 in 10.0 mi West 9.2 mph - N/A   Clear
8:14 PM 42.8 °F 36.6 °F 23.0 °F 46% 29.89 in 10.0 mi WSW 11.5 mph - N/A   Clear
8:34 PM 42.8 °F 37.0 °F 23.0 °F 46% 29.89 in 10.0 mi WSW 10.4 mph - N/A   Clear
8:54 PM 41.0 °F 34.3 °F 23.0 °F 49% 29.90 in 10.0 mi West 11.5 mph - N/A   Clear
9:14 PM 39.2 °F 34.2 °F 23.0 °F 52% 29.91 in 10.0 mi WSW 6.9 mph - N/A   Clear
9:34 PM 35.6 °F 30.7 °F 21.2 °F 56% 29.92 in 10.0 mi WSW 5.8 mph - N/A   Clear
9:54 PM 37.4 °F 30.8 °F 21.2 °F 52% 29.93 in 10.0 mi WSW 9.2 mph - N/A   Clear
10:14 PM 37.4 °F 30.3 °F 21.2 °F 52% 29.94 in 10.0 mi West 10.4 mph - N/A   Clear
10:34 PM 37.4 °F 32.1 °F 21.2 °F 52% 29.95 in 10.0 mi West 6.9 mph - N/A   Clear
10:54 PM 35.6 °F 29.9 °F 21.2 °F 56% 29.95 in 10.0 mi West 6.9 mph - N/A   Clear
11:14 PM 30.2 °F 24.3 °F 21.2 °F 69% 29.96 in 10.0 mi NW 5.8 mph - N/A   Clear
11:34 PM 33.8 °F 27.7 °F 21.2 °F 60% 29.97 in 10.0 mi NW 6.9 mph - N/A   Clear
11:54 PM 30.2 °F 23.4 °F 19.4 °F 64% 29.98 in 10.0 mi WNW 6.9 mph - N/A   Clear